Location: Newark
(48.6461°N, 4.3644°W)
Time: 08:16:15
(UTC+00:00)

Altair - Pass Details

Date: 26 January 2021
Orbit: 1501 x 1682 km, 47.2° (Epoch: 24 February)

Event Time Altitude Azimuth Distance (km) Brightness Sun altitude
Exits shadow 02:18:37 11° 115° (ESE) 3,812 9.6 -52.9°
Drops below altitude 10° 02:20:22 10° 105° (ESE) 3,915 9.8 -52.7°
Sets 02:26:52 0° 75° (ENE) 4,932 10.7 -51.9°
